Time,TemperatureF,DewpointF,PressureIn,WindDirection,WindDirectionDegrees,WindSpeedMPH,WindSpeedGustMPH,Humidity,HourlyPrecipIn,Conditions,Clouds,dailyrainin,SoftwareType,DateUTC
2013-02-26 00:01:00,32.0,28.0,30.42,East,98,0.0,0.0,86,-99.99,,,-99.99,,2013-02-26 05:01:00,
2013-02-26 00:12:00,32.0,28.0,30.42,East,98,0.0,0.0,86,-99.99,,,-99.99,,2013-02-26 05:12:00,
2013-02-26 00:22:00,31.0,28.0,30.42,East,98,0.0,0.0,87,-99.99,,,-99.99,,2013-02-26 05:22:00,
2013-02-26 00:32:00,31.0,28.0,30.42,East,99,0.0,0.0,87,-99.99,,,-99.99,,2013-02-26 05:32:00,
2013-02-26 00:43:00,31.0,28.0,30.42,East,99,0.0,0.0,87,-99.99,,,-99.99,,2013-02-26 05:43:00,
2013-02-26 00:52:00,31.0,28.0,30.42,East,98,0.0,0.0,88,-99.99,,,-99.99,,2013-02-26 05:52:00,
2013-02-26 01:02:00,31.0,28.0,30.42,East,99,0.0,0.0,89,-99.99,,,-99.99,,2013-02-26 06:02:00,
2013-02-26 01:11:00,31.0,28.0,30.42,East,99,0.0,0.0,89,-99.99,,,-99.99,,2013-02-26 06:11:00,
2013-02-26 01:22:00,32.0,29.0,30.42,East,99,0.0,0.0,89,-99.99,,,-99.99,,2013-02-26 06:22:00,
2013-02-26 01:32:00,32.0,29.0,30.41,East,99,0.0,0.0,89,-99.99,,,-99.99,,2013-02-26 06:32:00,
2013-02-26 01:42:00,32.0,29.0,30.41,East,99,0.0,0.0,89,-99.99,,,-99.99,,2013-02-26 06:42:00,
2013-02-26 01:52:00,32.0,29.0,30.40,East,98,0.0,0.0,89,-99.99,,,-99.99,,2013-02-26 06:52:00,
2013-02-26 02:01:00,32.0,29.0,30.41,East,99,0.0,0.0,88,-99.99,,,-99.99,,2013-02-26 07:01:00,
2013-02-26 02:11:00,32.0,29.0,30.41,East,99,0.0,0.0,88,-99.99,,,-99.99,,2013-02-26 07:11:00,
2013-02-26 02:22:00,32.0,29.0,30.43,East,98,0.0,1.0,88,-99.99,,,-99.99,,2013-02-26 07:22:00,
2013-02-26 02:32:00,32.0,29.0,30.43,East,99,0.0,0.0,87,-99.99,,,-99.99,,2013-02-26 07:32:00,
2013-02-26 02:42:00,32.0,29.0,30.43,East,99,0.0,0.0,87,-99.99,,,-99.99,,2013-02-26 07:42:00,
2013-02-26 02:52:00,32.0,29.0,30.44,East,99,0.0,0.0,88,-99.99,,,-99.99,,2013-02-26 07:52:00,
2013-02-26 03:02:00,32.0,29.0,30.45,East,99,0.0,0.0,87,-99.99,,,-99.99,,2013-02-26 08:02:00,
2013-02-26 03:11:00,32.0,29.0,30.45,East,99,0.0,0.0,87,-99.99,,,-99.99,,2013-02-26 08:11:00,
2013-02-26 03:21:00,33.0,30.0,30.45,East,99,0.0,0.0,87,-99.99,,,-99.99,,2013-02-26 08:21:00,
2013-02-26 03:32:00,33.0,29.0,30.44,East,98,0.0,1.0,86,-99.99,,,-99.99,,2013-02-26 08:32:00,
2013-02-26 03:42:00,33.0,29.0,30.44,East,98,0.0,1.0,86,-99.99,,,-99.99,,2013-02-26 08:42:00,
2013-02-26 03:52:00,33.0,29.0,30.46,East,98,0.0,0.0,86,-99.99,,,-99.99,,2013-02-26 08:52:00,
2013-02-26 04:02:00,34.0,30.0,30.46,East,99,0.0,0.0,85,-99.99,,,-99.99,,2013-02-26 09:02:00,
2013-02-26 04:11:00,34.0,30.0,30.46,East,99,0.0,0.0,85,-99.99,,,-99.99,,2013-02-26 09:11:00,
2013-02-26 04:21:00,34.0,30.0,30.45,East,98,0.0,0.0,84,-99.99,,,-99.99,,2013-02-26 09:21:00,
2013-02-26 04:32:00,34.0,30.0,30.44,ESE,102,0.0,1.0,84,-99.99,,,-99.99,,2013-02-26 09:32:00,
2013-02-26 04:43:00,34.0,30.0,30.44,ESE,102,0.0,1.0,84,-99.99,,,-99.99,,2013-02-26 09:43:00,
2013-02-26 04:51:00,33.0,29.0,30.45,ESE,102,0.0,0.0,84,-99.99,,,-99.99,,2013-02-26 09:51:00,
2013-02-26 05:01:00,34.0,29.0,30.45,East,101,0.0,1.0,82,-99.99,,,-99.99,,2013-02-26 10:01:00,
2013-02-26 05:11:00,34.0,29.0,30.45,East,101,0.0,1.0,82,-99.99,,,-99.99,,2013-02-26 10:11:00,
2013-02-26 05:21:00,34.0,29.0,30.45,East,101,0.0,2.0,83,-99.99,,,-99.99,,2013-02-26 10:21:00,
2013-02-26 05:32:00,33.0,29.0,30.45,East,100,0.0,0.0,84,-99.99,,,-99.99,,2013-02-26 10:32:00,
2013-02-26 05:42:00,33.0,29.0,30.45,East,100,0.0,0.0,84,-99.99,,,-99.99,,2013-02-26 10:42:00,
2013-02-26 05:52:00,33.0,29.0,30.46,East,100,0.0,0.0,84,-99.99,,,-99.99,,2013-02-26 10:52:00,
2013-02-26 06:01:00,33.0,28.0,30.46,East,87,0.0,1.0,83,-99.99,,,-99.99,,2013-02-26 11:01:00,
2013-02-26 06:12:00,33.0,28.0,30.46,East,87,0.0,1.0,83,-99.99,,,-99.99,,2013-02-26 11:12:00,
2013-02-26 06:22:00,34.0,29.0,30.45,East,86,0.0,1.0,82,-99.99,,,-99.99,,2013-02-26 11:22:00,
2013-02-26 06:32:00,34.0,29.0,30.46,East,86,0.0,1.0,82,-99.99,,,-99.99,,2013-02-26 11:32:00,
2013-02-26 06:42:00,34.0,29.0,30.46,East,86,0.0,1.0,82,-99.99,,,-99.99,,2013-02-26 11:42:00,
2013-02-26 06:53:00,34.0,29.0,30.46,East,88,0.0,1.0,82,-99.99,,,-99.99,,2013-02-26 11:53:00,
2013-02-26 07:02:00,34.0,29.0,30.46,East,94,0.0,1.0,82,-99.99,,,-99.99,,2013-02-26 12:02:00,
2013-02-26 07:11:00,34.0,29.0,30.46,East,94,0.0,1.0,82,-99.99,,,-99.99,,2013-02-26 12:11:00,
2013-02-26 07:22:00,34.0,29.0,30.46,East,84,1.0,2.0,83,-99.99,,,-99.99,,2013-02-26 12:22:00,
2013-02-26 07:32:00,34.0,29.0,30.46,East,83,0.0,2.0,82,-99.99,,,-99.99,,2013-02-26 12:32:00,
2013-02-26 07:42:00,34.0,29.0,30.46,East,83,0.0,2.0,82,-99.99,,,-99.99,,2013-02-26 12:42:00,
2013-02-26 07:53:00,34.0,29.0,30.46,ESE,114,1.0,2.0,81,-99.99,,,-99.99,,2013-02-26 12:53:00,
2013-02-26 08:02:00,35.0,30.0,30.47,East,84,0.0,2.0,81,-99.99,,,-99.99,,2013-02-26 13:02:00,
2013-02-26 08:11:00,35.0,30.0,30.47,East,84,0.0,2.0,81,-99.99,,,-99.99,,2013-02-26 13:11:00,
2013-02-26 08:22:00,35.0,29.0,30.48,ENE,64,0.0,2.0,80,-99.99,,,-99.99,,2013-02-26 13:22:00,
2013-02-26 08:32:00,36.0,30.0,30.48,East,84,0.0,1.0,78,-99.99,,,-99.99,,2013-02-26 13:32:00,
2013-02-26 08:42:00,36.0,30.0,30.48,East,84,0.0,1.0,78,-99.99,,,-99.99,,2013-02-26 13:42:00,
2013-02-26 08:52:00,37.0,30.0,30.48,ENE,71,1.0,2.0,76,-99.99,,,-99.99,,2013-02-26 13:52:00,
2013-02-26 09:01:00,37.0,30.0,30.48,East,101,1.0,3.0,75,-99.99,,,-99.99,,2013-02-26 14:01:00,
2013-02-26 09:11:00,37.0,30.0,30.48,East,101,1.0,3.0,75,-99.99,,,-99.99,,2013-02-26 14:11:00,
2013-02-26 09:22:00,38.0,30.0,30.48,ESE,108,1.0,3.0,72,-99.99,,,-99.99,,2013-02-26 14:22:00,
2013-02-26 09:32:00,39.0,30.0,30.48,ESE,103,1.0,3.0,71,-99.99,,,-99.99,,2013-02-26 14:32:00,
2013-02-26 09:42:00,39.0,30.0,30.48,ESE,103,1.0,3.0,71,-99.99,,,-99.99,,2013-02-26 14:42:00,
2013-02-26 09:52:00,39.0,30.0,30.49,East,98,1.0,2.0,69,-99.99,,,-99.99,,2013-02-26 14:52:00,
2013-02-26 10:02:00,39.0,30.0,30.50,SSW,197,1.0,3.0,69,-99.99,,,-99.99,,2013-02-26 15:02:00,
2013-02-26 10:11:00,39.0,30.0,30.50,SSW,197,1.0,3.0,69,-99.99,,,-99.99,,2013-02-26 15:11:00,
2013-02-26 10:22:00,39.0,29.0,30.49,ENE,60,1.0,3.0,67,-99.99,,,-99.99,,2013-02-26 15:22:00,
2013-02-26 10:32:00,40.0,29.0,30.49,SSE,163,1.0,3.0,65,-99.99,,,-99.99,,2013-02-26 15:32:00,
2013-02-26 10:42:00,40.0,29.0,30.49,SSE,163,1.0,3.0,65,-99.99,,,-99.99,,2013-02-26 15:42:00,
2013-02-26 10:52:00,40.0,28.0,30.49,SE,129,2.0,6.0,63,-99.99,,,-99.99,,2013-02-26 15:52:00,
2013-02-26 11:02:00,40.0,28.0,30.48,ENE,64,1.0,4.0,62,-99.99,,,-99.99,,2013-02-26 16:02:00,
2013-02-26 11:11:00,40.0,28.0,30.48,ENE,64,1.0,4.0,62,-99.99,,,-99.99,,2013-02-26 16:11:00,
2013-02-26 11:22:00,40.0,27.0,30.48,East,101,2.0,5.0,60,-99.99,,,-99.99,,2013-02-26 16:22:00,
2013-02-26 11:32:00,40.0,28.0,30.49,East,98,1.0,5.0,61,-99.99,,,-99.99,,2013-02-26 16:32:00,
2013-02-26 11:42:00,40.0,28.0,30.49,East,98,1.0,5.0,61,-99.99,,,-99.99,,2013-02-26 16:42:00,
2013-02-26 11:52:00,39.0,27.0,30.49,ESE,120,2.0,5.0,62,-99.99,,,-99.99,,2013-02-26 16:52:00,
2013-02-26 12:01:00,39.0,29.0,30.48,SW,229,2.0,5.0,66,-99.99,,,-99.99,,2013-02-26 17:01:00,
2013-02-26 12:11:00,39.0,29.0,30.48,SW,229,2.0,5.0,66,-99.99,,,-99.99,,2013-02-26 17:11:00,
2013-02-26 12:22:00,39.0,28.0,30.48,ESE,105,2.0,6.0,65,-99.99,,,-99.99,,2013-02-26 17:22:00,
2013-02-26 12:32:00,39.0,28.0,30.48,East,92,3.0,9.0,64,-99.99,,,-99.99,,2013-02-26 17:32:00,
2013-02-26 12:42:00,39.0,28.0,30.48,East,92,3.0,9.0,64,-99.99,,,-99.99,,2013-02-26 17:42:00,
2013-02-26 12:52:00,39.0,28.0,30.47,ENE,74,1.0,8.0,65,-99.99,,,-99.99,,2013-02-26 17:52:00,
2013-02-26 13:02:00,39.0,29.0,30.47,SE,126,2.0,8.0,66,-99.99,,,-99.99,,2013-02-26 18:02:00,
2013-02-26 13:12:00,39.0,29.0,30.47,SE,126,2.0,8.0,66,-99.99,,,-99.99,,2013-02-26 18:12:00,
2013-02-26 13:21:00,39.0,29.0,30.47,ESE,105,1.0,8.0,68,-99.99,,,-99.99,,2013-02-26 18:21:00,
2013-02-26 13:32:00,38.0,32.0,30.45,NE,47,3.0,7.0,78,-99.99,,,-99.99,,2013-02-26 18:32:00,
2013-02-26 13:42:00,38.0,32.0,30.45,NE,47,3.0,7.0,78,-99.99,,,-99.99,,2013-02-26 18:42:00,
2013-02-26 13:52:00,38.0,32.0,30.45,ENE,73,2.0,7.0,80,-99.99,,,-99.99,,2013-02-26 18:52:00,
2013-02-26 14:02:00,38.0,32.0,30.45,SSE,149,3.0,9.0,80,-99.99,,,-99.99,,2013-02-26 19:02:00,
2013-02-26 14:11:00,38.0,32.0,30.45,SSE,149,3.0,9.0,80,-99.99,,,-99.99,,2013-02-26 19:11:00,
2013-02-26 14:22:00,38.0,32.0,30.44,SSW,201,3.0,7.0,79,-99.99,,,-99.99,,2013-02-26 19:22:00,
2013-02-26 14:32:00,38.0,31.0,30.43,East,98,3.0,11.0,77,-99.99,,,-99.99,,2013-02-26 19:32:00,
2013-02-26 14:42:00,38.0,31.0,30.43,East,98,3.0,11.0,77,-99.99,,,-99.99,,2013-02-26 19:42:00,
2013-02-26 14:52:00,38.0,31.0,30.43,SSE,162,3.0,9.0,77,-99.99,,,-99.99,,2013-02-26 19:52:00,
2013-02-26 15:01:00,38.0,32.0,30.43,SE,131,4.0,10.0,78,-99.99,,,-99.99,,2013-02-26 20:01:00,
2013-02-26 15:11:00,38.0,32.0,30.43,SE,131,4.0,10.0,78,-99.99,,,-99.99,,2013-02-26 20:11:00,
2013-02-26 15:22:00,38.0,32.0,30.44,WSW,256,3.0,8.0,78,-99.99,,,-99.99,,2013-02-26 20:22:00,
2013-02-26 15:32:00,38.0,32.0,30.44,SSW,200,2.0,7.0,78,-99.99,,,-99.99,,2013-02-26 20:32:00,
2013-02-26 15:41:00,38.0,32.0,30.44,SSW,200,2.0,7.0,78,-99.99,,,-99.99,,2013-02-26 20:41:00,
2013-02-26 15:52:00,37.0,31.0,30.43,SE,128,3.0,8.0,79,-99.99,,,-99.99,,2013-02-26 20:52:00,
2013-02-26 16:01:00,37.0,31.0,30.43,ESE,105,3.0,7.0,79,-99.99,,,-99.99,,2013-02-26 21:01:00,
2013-02-26 16:11:00,37.0,31.0,30.43,ESE,105,3.0,7.0,79,-99.99,,,-99.99,,2013-02-26 21:11:00,
2013-02-26 16:21:00,37.0,31.0,30.42,ESE,108,3.0,10.0,79,-99.99,,,-99.99,,2013-02-26 21:21:00,
2013-02-26 16:31:00,36.0,30.0,30.41,SSE,150,3.0,8.0,78,-99.99,,,-99.99,,2013-02-26 21:31:00,
2013-02-26 16:41:00,36.0,30.0,30.41,SSE,150,3.0,8.0,78,-99.99,,,-99.99,,2013-02-26 21:41:00,
2013-02-26 16:51:00,36.0,29.0,30.40,SE,131,3.0,7.0,75,-99.99,,,-99.99,,2013-02-26 21:51:00,
2013-02-26 17:01:00,36.0,29.0,30.40,SE,129,1.0,9.0,75,-99.99,,,-99.99,,2013-02-26 22:01:00,
2013-02-26 17:11:00,36.0,29.0,30.40,SE,129,1.0,9.0,75,-99.99,,,-99.99,,2013-02-26 22:11:00,
2013-02-26 17:21:00,36.0,29.0,30.40,SW,226,1.0,9.0,75,-99.99,,,-99.99,,2013-02-26 22:21:00,
2013-02-26 17:32:00,35.0,27.0,30.40,ESE,105,2.0,8.0,73,-99.99,,,-99.99,,2013-02-26 22:32:00,
2013-02-26 17:42:00,35.0,27.0,30.40,ESE,105,2.0,8.0,73,-99.99,,,-99.99,,2013-02-26 22:42:00,
2013-02-26 17:51:00,35.0,28.0,30.40,NE,44,1.0,5.0,75,-99.99,,,-99.99,,2013-02-26 22:51:00,
2013-02-26 18:01:00,35.0,29.0,30.40,SW,233,1.0,2.0,77,-99.99,,,-99.99,,2013-02-26 23:01:00,
2013-02-26 18:11:00,35.0,29.0,30.40,SW,233,1.0,2.0,77,-99.99,,,-99.99,,2013-02-26 23:11:00,
2013-02-26 18:21:00,35.0,29.0,30.39,East,84,1.0,5.0,79,-99.99,,,-99.99,,2013-02-26 23:21:00,
2013-02-26 18:32:00,34.0,28.0,30.37,East,82,2.0,5.0,80,-99.99,,,-99.99,,2013-02-26 23:32:00,
2013-02-26 18:42:00,34.0,28.0,30.37,East,82,2.0,5.0,80,-99.99,,,-99.99,,2013-02-26 23:42:00,
2013-02-26 18:52:00,34.0,28.0,30.37,SE,140,2.0,5.0,80,-99.99,,,-99.99,,2013-02-26 23:52:00,
2013-02-26 19:01:00,34.0,28.0,30.38,East,82,2.0,4.0,79,-99.99,,,-99.99,,2013-02-27 00:01:00,
2013-02-26 19:11:00,34.0,28.0,30.38,East,82,2.0,4.0,79,-99.99,,,-99.99,,2013-02-27 00:11:00,
2013-02-26 19:22:00,34.0,28.0,30.37,ESE,111,2.0,5.0,79,-99.99,,,-99.99,,2013-02-27 00:22:00,
2013-02-26 19:32:00,34.0,28.0,30.37,ESE,108,2.0,7.0,78,-99.99,,,-99.99,,2013-02-27 00:32:00,
2013-02-26 19:42:00,34.0,28.0,30.37,ESE,108,2.0,7.0,78,-99.99,,,-99.99,,2013-02-27 00:42:00,
2013-02-26 19:51:00,34.0,28.0,30.36,SSW,212,2.0,5.0,78,-99.99,,,-99.99,,2013-02-27 00:51:00,
2013-02-26 20:01:00,34.0,28.0,30.36,East,86,2.0,5.0,78,-99.99,,,-99.99,,2013-02-27 01:01:00,
2013-02-26 20:11:00,34.0,28.0,30.36,East,86,2.0,5.0,78,-99.99,,,-99.99,,2013-02-27 01:11:00,
2013-02-26 20:22:00,34.0,28.0,30.34,ESE,120,2.0,4.0,78,-99.99,,,-99.99,,2013-02-27 01:22:00,
2013-02-26 20:32:00,34.0,28.0,30.35,East,88,2.0,6.0,79,-99.99,,,-99.99,,2013-02-27 01:32:00,
2013-02-26 20:42:00,34.0,28.0,30.35,East,88,2.0,6.0,79,-99.99,,,-99.99,,2013-02-27 01:42:00,
2013-02-26 20:52:00,34.0,28.0,30.35,ENE,70,1.0,6.0,79,-99.99,,,-99.99,,2013-02-27 01:52:00,
2013-02-26 21:01:00,34.0,28.0,30.34,East,97,2.0,4.0,80,-99.99,,,-99.99,,2013-02-27 02:01:00,
2013-02-26 21:16:00,34.0,28.0,30.34,East,97,2.0,4.0,80,-99.99,,,-99.99,,2013-02-27 02:16:00,
2013-02-26 21:24:00,34.0,28.0,30.33,East,87,2.0,5.0,80,-99.99,,,-99.99,,2013-02-27 02:24:00,
2013-02-26 21:32:00,34.0,29.0,30.32,ENE,61,3.0,6.0,83,-99.99,,,-99.99,,2013-02-27 02:32:00,
2013-02-26 21:42:00,34.0,29.0,30.32,ENE,61,3.0,6.0,83,-99.99,,,-99.99,,2013-02-27 02:42:00,
2013-02-26 21:52:00,33.0,29.0,30.30,East,81,3.0,6.0,86,-99.99,,,-99.99,,2013-02-27 02:52:00,
2013-02-26 22:02:00,33.0,30.0,30.30,SE,136,2.0,6.0,88,-99.99,,,-99.99,,2013-02-27 03:02:00,
2013-02-26 22:11:00,33.0,30.0,30.30,SE,136,2.0,6.0,88,-99.99,,,-99.99,,2013-02-27 03:11:00,
2013-02-26 22:22:00,33.0,30.0,30.29,ESE,108,3.0,6.0,88,-99.99,,,-99.99,,2013-02-27 03:22:00,
2013-02-26 22:32:00,33.0,30.0,30.28,ENE,76,3.0,6.0,88,-99.99,,,-99.99,,2013-02-27 03:32:00,
2013-02-26 22:42:00,33.0,30.0,30.28,ENE,76,3.0,6.0,88,-99.99,,,-99.99,,2013-02-27 03:42:00,
2013-02-26 22:52:00,33.0,30.0,30.25,SE,127,4.0,7.0,88,-99.99,,,-99.99,,2013-02-27 03:52:00,
2013-02-26 23:01:00,33.0,30.0,30.24,WSW,238,4.0,8.0,88,-99.99,,,-99.99,,2013-02-27 04:01:00,
2013-02-26 23:11:00,33.0,30.0,30.24,WSW,238,4.0,8.0,88,-99.99,,,-99.99,,2013-02-27 04:11:00,
2013-02-26 23:22:00,33.0,30.0,30.24,East,81,4.0,9.0,89,-99.99,,,-99.99,,2013-02-27 04:22:00,
2013-02-26 23:32:00,33.0,30.0,30.24,SE,129,4.0,9.0,90,-99.99,,,-99.99,,2013-02-27 04:32:00,
2013-02-26 23:42:00,33.0,30.0,30.24,SE,129,4.0,9.0,90,-99.99,,,-99.99,,2013-02-27 04:42:00,
2013-02-26 23:52:00,33.0,31.0,30.23,ESE,105,4.0,10.0,91,-99.99,,,-99.99,,2013-02-27 04:52:00,